GFSWCAN_sfc_temp_072.txt.gz
Temp
59 59 59 59 59 59 59 59 59 59 59 59 59 57 56 55 56 55 57 63 57 52 55 60 60 56 58 59 54 55 54 54 51 47 47 48 45 49 48 50 46 43 38 37 40 33 32 54 51 44 49 51 54 51
58 59 59 59 59 59 59 59 59 59 59 58 58 58 58 57 56 54 52 63 64 53 55 59 61 61 58 58 53 57 56 57 57 52 52 49 45 46 47 42 49 40 49 43 43 42 52 54 50 52 54 53 50 51
58 58 58 58 58 58 59 59 59 58 58 57 57 57 57 56 56 55 51 55 57 52 52 54 55 61 61 60 60 51 58 62 60 57 56 52 47 51 43 46 49 49 52 44 46 51 51 55 55 55 53 52 54 53
57 58 58 58 58 58 58 58 59 58 58 58 57 57 57 55 55 53 51 53 52 54 47 53 61 56 62 60 60 60 58 62 60 58 54 48 44 54 48 49 47 49 50 49 48 52 51 53 55 55 54 54 53 53
57 57 57 57 57 57 57 58 58 58 58 58 57 57 57 55 54 51 50 52 53 52 45 51 56 58 59 59 59 60 58 57 56 52 51 46 52 50 49 46 44 52 50 45 44 54 52 50 55 57 52 51 51 50
56 56 56 57 57 57 57 57 57 57 57 57 57 56 56 55 54 49 45 52 53 58 48 42 51 54 56 58 58 57 57 56 56 54 52 51 51 48 38 39 55 57 58 58 52 55 52 54 56 56 52 52 52 51
56 56 56 56 56 56 56 56 56 57 57 56 56 55 55 54 51 47 45 47 51 58 49 42 42 51 55 56 54 53 54 54 53 52 49 51 49 47 40 37 54 57 58 57 56 53 49 51 49 54 54 54 54 54
55 55 56 56 56 56 56 56 56 56 56 56 55 55 54 53 51 47 51 50 51 52 52 39 42 44 52 49 47 53 51 52 50 50 47 47 46 45 34 46 53 56 57 55 54 52 51 53 53 52 53 52 50 49
55 55 55 56 56 56 56 56 56 56 56 55 54 53 50 47 44 47 52 51 50 49 40 38 35 37 50 50 49 49 51 43 47 44 47 46 42 35 45 49 53 53 52 52 53 52 51 50 49 50 50 49 47 48
54 54 55 55 55 55 56 56 55 55 55 53 51 44 39 44 51 49 44 41 41 46 47 42 48 38 48 46 43 43 44 41 36 43 44 37 41 50 53 54 54 53 54 53 48 46 48 48 48 48 48 49 49 49
54 54 54 54 54 55 55 55 55 54 52 47 41 38 45 51 45 42 34 36 38 38 46 46 49 41 49 44 41 46 39 40 35 40 38 38 39 47 50 51 53 54 54 53 52 52 51 51 49 49 49 50 49 49
54 54 54 54 54 54 54 54 54 50 48 45 45 47 44 40 35 33 33 37 39 38 47 47 47 48 46 51 43 39 39 37 33 43 35 34 45 46 47 50 51 52 53 52 54 52 52 53 52 50 49 49 48 48
54 54 54 54 54 54 54 54 53 52 50 46 41 35 34 33 30 30 30 33 38 46 48 46 42 44 43 47 43 39 34 34 42 34 34 40 44 47 47 49 49 51 51 51 51 51 51 50 51 50 48 48 48 47
53 53 53 53 53 53 53 53 52 50 44 36 32 30 31 30 33 38 41 45 49 48 47 49 42 44 43 40 40 33 37 37 30 30 35 43 45 47 47 49 49 48 49 48 49 49 49 48 48 49 48 47 46 44
53 53 52 52 53 53 53 52 51 47 39 33 33 30 32 41 46 48 54 54 51 51 50 45 42 42 36 33 37 34 29 28 33 34 41 46 48 48 47 49 48 48 48 47 48 47 48 48 47 46 47 46 45 45
52 52 50 52 52 52 52 51 48 45 39 34 34 34 42 41 44 49 52 48 52 51 51 46 40 36 35 36 31 31 31 31 37 43 47 49 48 48 48 50 50 50 49 48 47 47 47 47 46 45 46 45 44 43
51 48 52 52 52 51 51 47 38 33 33 32 33 40 43 47 47 47 50 48 54 50 40 40 32 35 37 32 32 37 35 42 47 47 50 49 48 49 51 51 51 50 49 47 46 46 46 46 45 44 41 42 42 42
48 51 52 52 51 49 42 39 35 33 31 33 35 41 44 48 50 49 49 50 50 49 45 41 40 34 32 31 33 40 43 45 49 49 50 50 51 51 52 50 50 50 48 46 46 45 44 42 41 38 40 40 40 40
50 51 51 51 48 38 33 32 34 31 34 37 41 46 45 45 48 50 47 50 46 47 43 39 35 36 39 43 43 46 46 46 45 45 48 51 51 50 50 50 49 48 46 45 44 42 41 41 40 39 39 40 35 38
52 51 51 50 49 36 32 32 36 34 33 38 43 42 43 43 45 46 46 43 43 42 37 33 39 44 45 46 49 49 48 49 47 44 44 47 50 50 49 49 48 47 46 44 43 45 41 39 41 41 39 39 37 36
50 49 49 46 36 36 34 32 33 35 36 37 41 40 38 42 41 42 40 43 39 37 38 45 44 43 47 48 51 51 49 49 45 45 44 43 49 49 48 48 47 46 43 40 38 39 43 38 39 40 40 39 38 39
46 46 38 40 33 32 33 35 36 38 36 37 38 39 36 35 36 38 41 37 38 45 45 45 43 44 45 47 48 50 50 49 48 48 48 48 45 45 46 46 43 39 39 39 41 39 39 40 40 39 38 37 40 38
44 41 34 33 32 32 32 38 33 35 32 33 37 34 32 35 39 43 36 40 44 47 46 46 46 47 48 50 50 50 50 48 46 46 47 46 45 47 46 43 44 41 38 39 42 41 38 41 41 38 37 38 37 37
41 35 32 32 32 30 32 31 33 34 34 33 32 32 34 35 37 35 35 39 43 45 44 45 46 45 47 49 48 48 48 49 47 47 46 45 43 42 44 44 43 43 42 42 41 39 38 38 40 38 37 37 36 36
31 30 32 29 32 30 30 30 32 32 31 32 31 30 32 35 32 32 34 38 40 41 43 43 44 45 45 46 47 47 49 49 46 42 44 46 45 43 41 40 40 41 43 40 37 37 37 38 38 38 37 36 35 35
28 30 31 30 31 31 32 29 31 33 33 32 32 34 34 32 29 30 34 39 41 42 41 41 42 42 43 45 45 44 46 49 47 43 45 46 45 41 38 37 35 36 41 41 40 38 37 38 37 37 36 36 38 35
26 27 32 37 37 34 32 37 40 36 32 30 31 30 31 29 31 36 39 44 43 45 45 45 47 46 44 44 45 48 49 49 46 46 47 46 45 45 43 39 36 39 42 42 41 40 38 37 36 36 35 35 35 34
32 32 29 32 35 37 33 33 34 34 33 35 34 29 31 34 34 35 36 40 44 46 45 46 47 48 47 47 47 46 45 46 46 44 43 42 42 44 44 44 44 44 43 42 40 39 38 37 36 36 35 34 33 34
31 35 35 29 33 35 35 34 35 37 39 37 34 33 32 31 32 32 33 35 44 45 43 43 43 47 46 45 44 42 43 42 39 35 34 32 34 35 41 41 42 42 42 41 44 41 40 38 37 36 36 34 34 34
32 38 33 31 30 30 32 33 34 36 37 37 35 33 31 31 32 34 35 37 42 43 44 43 43 43 40 39 37 38 42 44 45 42 37 36 37 40 40 41 41 40 40 39 38 39 43 39 40 35 34 32 31 31
36 35 31 30 28 32 33 36 37 37 36 35 36 33 30 30 32 34 34 35 37 41 41 40 40 41 40 39 38 38 37 40 42 44 44 42 41 41 41 42 41 41 39 38 37 36 36 33 32 31 31 30 31 31
35 32 30 27 28 33 36 34 34 33 33 33 32 32 32 33 29 31 32 34 37 38 41 42 39 39 41 43 43 42 42 40 42 43 41 42 42 42 42 42 42 41 39 37 36 36 35 32 31 30 30 30 30 30
32 33 33 32 30 30 33 33 31 29 29 30 30 31 32 32 29 30 33 33 33 39 40 42 43 43 43 43 42 42 42 40 42 44 44 44 44 42 41 40 40 39 37 35 34 34 32 32 31 31 30 30 30 29

GFSWCAN_sfc_temp_075.txt.gz
Temp
59 59 59 59 59 59 59 59 60 59 59 59 59 58 57 56 57 53 51 52 49 45 47 52 53 47 48 46 43 47 46 46 42 40 39 40 37 43 41 43 40 37 30 30 32 27 30 49 47 43 45 46 50 48
59 59 59 59 59 59 59 59 59 59 59 59 58 58 57 56 56 55 49 54 54 48 47 52 55 55 54 53 47 46 47 48 48 42 42 42 40 39 40 35 43 36 42 37 37 37 47 48 47 48 49 48 47 47
58 58 58 58 58 59 59 59 59 59 58 58 57 57 57 57 56 53 48 49 49 47 49 48 48 58 56 55 53 44 47 53 53 51 47 45 42 41 36 38 39 42 46 41 41 45 47 50 48 50 50 49 49 48
57 58 58 58 58 57 58 59 59 59 58 58 57 57 57 57 55 53 47 48 49 46 41 43 55 50 56 54 54 52 51 54 52 48 47 41 36 45 40 43 41 44 45 42 40 45 45 49 49 49 50 49 49 49
57 58 57 57 58 58 58 58 59 58 58 58 57 57 57 56 55 49 45 47 52 46 41 43 50 53 54 52 52 53 51 49 45 47 43 39 42 42 39 39 37 44 44 39 39 47 46 45 49 50 48 47 47 47
57 57 57 57 57 57 57 57 57 58 58 57 57 57 56 55 54 46 39 46 50 50 43 37 48 50 51 51 50 50 50 47 46 47 42 41 44 42 30 29 44 47 48 49 48 47 48 48 50 50 48 47 48 47
56 57 57 57 57 57 56 56 57 57 57 56 56 56 55 55 48 43 42 46 50 52 43 37 39 47 49 49 47 47 48 45 46 44 41 41 41 41 29 30 46 49 50 48 48 48 44 45 46 49 49 49 51 48
56 56 56 56 56 56 56 56 56 56 56 56 55 54 54 53 50 46 46 50 50 46 45 36 38 40 45 41 41 45 44 42 44 41 40 40 40 37 31 41 45 47 47 46 47 47 47 47 47 47 47 47 45 45
55 56 56 56 56 56 56 56 56 56 55 55 54 52 47 46 43 45 53 52 49 45 34 36 33 32 44 42 41 42 43 35 41 37 39 39 34 31 42 43 46 47 48 46 46 46 46 45 44 45 45 45 43 44
55 55 55 55 55 56 56 56 55 55 54 53 46 43 38 43 51 50 45 42 42 41 41 35 40 36 41 38 36 37 36 34 31 37 38 30 34 42 46 47 48 49 48 47 43 41 42 41 43 43 43 45 45 45
54 55 55 54 55 55 55 55 55 54 52 42 40 36 42 51 44 42 36 35 34 33 39 38 41 38 45 39 37 38 32 36 28 35 35 30 30 40 45 46 47 48 48 47 46 46 46 46 44 44 44 45 45 44
54 54 54 54 54 54 55 54 54 47 42 43 42 45 44 40 37 33 31 34 33 33 36 39 41 43 43 45 38 33 35 32 27 35 27 29 36 42 44 45 45 46 47 47 48 47 46 47 46 45 44 44 43 43
53 54 54 54 54 54 54 54 53 50 49 43 40 37 35 33 27 28 27 30 33 36 39 40 39 41 41 42 36 34 29 27 34 25 29 32 38 42 42 44 44 45 47 46 46 46 46 45 46 46 43 43 43 42
53 53 53 53 53 53 53 53 52 50 42 36 33 28 28 26 29 32 31 32 39 40 45 47 38 40 39 37 34 30 31 30 23 23 30 36 38 41 42 43 44 43 45 45 45 46 45 45 44 44 44 43 42 40
53 53 53 53 53 53 53 53 52 45 40 34 33 26 28 32 35 36 39 40 43 46 48 41 38 39 33 34 33 28 25 22 28 30 33 38 42 42 41 41 42 43 44 44 44 44 43 43 43 41 42 42 41 40
52 52 50 52 53 52 52 51 48 44 39 35 33 32 34 31 31 35 39 39 43 47 47 43 36 34 33 33 26 27 25 28 33 34 38 41 42 43 42 43 43 43 43 43 42 43 43 42 41 40 40 40 40 40
52 46 52 52 52 52 52 45 40 35 33 31 30 36 33 34 36 39 42 41 49 47 38 35 33 34 31 20 22 28 30 36 37 37 42 43 43 43 43 44 45 45 43 42 41 42 41 41 40 39 37 38 39 39
46 50 52 52 51 49 45 39 35 33 31 33 31 33 34 37 39 43 44 44 45 46 45 38 37 29 26 25 27 36 38 38 38 42 43 43 44 45 47 45 45 45 43 42 42 40 39 38 37 35 36 37 37 37
49 50 52 51 49 38 32 33 35 30 31 33 33 37 37 39 43 43 44 45 44 43 41 36 34 30 32 35 39 39 42 40 42 40 40 42 46 46 46 46 45 43 42 41 41 39 37 38 37 36 36 36 33 34
52 51 51 50 48 36 31 30 36 33 31 34 34 37 40 41 44 42 41 41 42 41 36 33 31 35 39 43 45 47 43 45 45 42 40 41 45 46 46 46 45 42 41 39 39 41 38 36 37 37 36 36 34 33
49 49 49 47 38 37 34 31 32 32 34 34 35 39 37 38 38 39 39 40 38 32 31 37 38 41 45 46 46 47 46 49 46 44 43 40 46 46 44 43 43 42 40 39 37 37 37 35 35 36 36 34 34 34
45 48 41 40 33 32 33 35 35 37 32 34 36 37 32 31 32 38 39 36 33 38 39 40 41 42 43 43 43 47 45 43 43 46 47 46 43 43 43 43 41 37 38 38 38 37 35 35 35 35 34 34 35 34
43 40 34 33 31 31 30 37 33 34 29 32 34 32 32 31 33 39 33 36 37 41 42 41 42 45 43 45 46 45 46 45 44 44 46 45 44 44 42 41 42 39 37 35 39 38 36 40 39 34 35 34 33 33
43 33 32 32 31 28 32 31 33 32 33 32 32 29 31 32 35 32 29 31 37 40 40 40 41 41 42 43 44 45 46 47 46 44 44 44 41 40 41 40 41 40 41 40 38 36 36 36 39 34 34 33 33 32
32 30 31 29 30 26 23 27 30 31 30 32 29 28 30 33 30 30 29 32 35 38 39 40 41 43 43 43 43 44 46 47 44 43 45 46 41 40 38 37 38 39 41 38 35 35 34 35 35 34 33 33 32 32
27 29 29 28 25 28 27 27 28 29 30 30 30 30 31 30 27 27 30 34 36 40 39 39 39 37 39 45 43 42 45 49 47 43 43 45 44 41 38 36 36 34 39 40 38 36 35 35 35 34 33 35 38 32
25 27 31 32 32 31 30 31 33 31 29 27 29 28 28 26 27 32 35 42 41 43 44 44 45 45 42 41 43 47 48 48 48 46 45 44 45 45 43 39 37 39 40 40 40 38 37 36 34 33 32 31 32 32
28 31 28 29 29 31 29 30 30 31 32 31 31 27 27 30 32 34 34 36 40 44 43 43 44 46 47 47 46 46 45 43 43 43 42 39 38 39 39 40 41 43 42 41 39 38 37 36 34 33 32 31 31 32
29 31 32 27 28 30 29 30 30 32 35 33 32 31 31 29 30 29 31 32 39 43 40 41 40 43 42 42 45 46 44 45 41 37 35 34 34 32 39 41 42 41 41 40 42 40 37 36 35 34 33 32 31 31
27 34 31 30 25 26 29 30 31 34 34 33 32 29 29 29 28 29 31 33 38 41 43 42 41 41 38 38 38 39 42 46 46 43 37 36 36 36 40 40 39 39 40 40 39 39 43 39 38 34 32 30 29 29
32 30 28 28 27 27 29 32 34 35 34 32 33 30 27 28 31 32 31 31 32 38 40 39 40 41 40 39 39 38 37 39 41 42 43 40 39 40 40 40 40 40 39 39 38 36 35 32 31 30 29 29 29 29
29 29 28 24 25 28 31 31 31 31 31 30 29 31 29 29 27 29 32 32 36 38 41 42 39 39 42 44 45 43 46 41 41 42 41 41 40 40 40 40 40 39 37 36 35 34 32 31 30 29 29 28 28 28
29 29 30 29 29 28 30 29 28 27 29 28 27 30 30 30 27 29 30 31 32 36 39 40 42 42 42 43 42 43 44 43 42 44 44 43 43 41 40 39 39 38 36 34 33 33 31 30 29 29 28 28 28 28

GFSWCAN_sfc_temp_078.txt.gz
Temp
60 59 59 60 59 60 59 59 60 60 59 59 59 59 58 57 57 52 48 50 50 47 45 49 49 42 44 43 40 45 44 44 41 38 35 37 36 43 40 42 39 38 31 29 30 27 30 48 46 42 44 43 46 45
59 59 59 59 59 59 58 59 59 59 59 59 58 58 58 57 56 54 46 51 52 47 48 51 52 54 51 51 46 44 43 44 44 40 38 37 38 36 38 36 40 36 42 36 37 37 46 46 45 46 47 46 44 45
59 58 58 58 58 59 58 59 59 59 58 58 58 58 58 57 56 53 46 46 47 46 45 46 46 55 54 54 54 43 44 48 47 47 42 40 38 39 35 37 37 40 43 40 40 43 45 47 46 47 48 48 47 46
58 58 57 58 58 58 58 58 59 58 58 58 58 57 57 57 56 53 44 45 46 43 39 40 51 47 52 52 53 55 51 49 47 44 43 38 36 44 39 41 40 43 43 41 39 43 43 47 46 48 47 47 46 46
57 57 57 57 57 57 58 58 58 58 58 58 57 57 57 56 55 48 44 45 48 43 38 41 48 54 51 48 50 51 49 45 42 41 39 38 41 41 37 37 35 42 43 40 41 47 46 45 46 48 46 45 45 45
57 57 57 57 57 58 57 57 58 58 58 57 57 57 56 55 52 46 41 44 47 48 42 36 43 44 46 47 47 46 45 44 42 40 40 42 43 44 29 29 43 45 46 48 47 45 46 44 46 46 45 45 45 45
56 56 56 57 57 57 56 57 57 57 57 57 56 56 55 54 48 44 40 46 49 47 42 36 35 42 47 45 43 42 43 43 41 40 39 40 41 40 27 31 45 47 47 46 46 47 43 44 45 46 46 46 48 45
56 55 56 57 57 56 56 57 56 57 57 57 56 55 54 53 50 45 45 50 50 46 45 34 37 36 46 41 38 41 40 39 40 40 38 39 39 34 31 40 45 45 44 43 45 43 46 45 44 44 45 44 43 43
55 55 56 56 57 56 56 57 56 56 56 56 54 52 46 43 42 42 51 51 49 45 34 33 33 27 42 42 42 42 40 32 38 36 37 38 33 32 42 45 44 45 46 44 43 43 43 43 42 42 42 42 41 42
54 55 56 56 56 56 56 56 56 55 55 53 46 41 37 40 51 50 43 42 42 42 40 34 40 34 41 38 37 37 32 30 29 37 36 30 35 41 45 45 47 47 46 44 41 39 39 38 41 40 41 43 43 42
54 54 55 55 55 55 55 55 55 54 52 43 38 36 43 50 41 38 35 36 36 32 36 37 38 36 45 38 37 38 32 33 28 35 34 30 29 37 44 48 46 46 46 48 44 46 46 46 43 41 42 43 42 41
54 54 54 54 54 54 54 54 54 47 44 43 41 45 44 40 38 33 32 33 33 32 38 34 37 42 42 44 39 35 32 27 28 32 26 29 34 42 42 42 43 43 45 45 45 44 43 44 44 43 41 40 41 41
54 54 54 54 53 53 54 54 53 51 49 42 39 37 34 34 29 27 26 30 31 34 35 37 38 39 40 41 37 34 27 26 32 24 29 32 38 40 41 41 41 42 45 44 43 44 45 43 44 43 41 41 40 40
54 53 53 53 53 53 53 52 51 51 42 35 32 28 30 28 30 27 29 31 36 35 37 44 37 39 38 36 35 31 31 29 22 23 29 36 38 39 39 41 43 41 43 42 42 44 43 43 41 42 42 41 40 38
53 53 52 52 52 52 53 52 52 47 39 33 33 26 28 30 30 32 34 33 37 38 40 39 37 38 33 34 34 31 24 21 27 31 36 41 37 40 38 40 41 42 42 42 43 43 42 42 42 39 39 39 39 38
52 51 49 52 52 52 51 51 50 43 37 34 33 30 33 29 28 30 32 34 38 42 44 41 35 33 32 32 28 27 24 27 35 36 41 37 39 41 40 42 43 43 43 43 42 42 42 41 40 38 38 38 37 37
51 45 51 52 52 51 50 45 42 35 34 32 31 35 33 32 35 35 35 36 41 42 35 35 30 31 31 26 20 27 30 38 41 40 40 39 41 40 42 42 43 43 42 41 40 41 39 39 39 38 35 36 37 37
46 49 52 52 51 48 44 40 34 32 30 33 30 33 34 33 34 34 37 39 40 39 42 37 36 30 27 23 26 36 37 40 39 40 41 38 39 42 45 43 43 43 41 41 41 39 38 38 36 35 35 35 35 35
49 50 52 51 49 37 33 33 36 31 32 34 31 35 34 34 36 38 38 40 41 41 41 37 34 30 32 33 37 42 46 42 41 40 39 39 41 43 43 43 42 41 40 40 40 40 38 37 36 35 35 35 32 32
52 51 51 51 49 35 31 30 36 33 31 32 32 33 35 39 40 37 37 38 38 39 35 34 35 36 37 42 43 44 45 44 43 38 35 38 41 43 43 43 43 42 39 37 38 40 36 35 35 36 35 35 32 31
49 49 50 49 39 37 33 31 32 33 34 34 32 34 31 34 35 36 34 37 35 32 34 36 38 46 53 44 45 46 44 46 43 41 42 39 44 44 43 42 42 42 39 38 37 37 38 36 34 35 35 33 32 32
45 51 43 40 33 32 32 34 33 35 33 33 31 32 29 30 31 32 36 35 31 35 38 39 41 43 44 44 45 45 46 44 44 46 45 45 41 41 40 43 41 38 38 38 38 36 35 34 34 35 34 33 34 32
43 40 33 32 31 31 30 37 33 33 30 31 32 30 29 28 31 36 31 32 35 39 44 45 43 44 44 45 44 44 45 45 44 44 45 44 43 44 43 42 41 38 35 34 38 37 35 38 38 34 35 33 31 31
42 35 32 31 31 28 32 31 34 32 33 32 28 24 30 29 31 28 28 30 34 40 40 42 44 40 41 41 40 43 45 47 44 43 42 43 41 40 42 41 40 39 40 38 37 36 36 35 38 34 33 32 30 30
32 30 32 29 31 28 28 28 30 31 28 28 28 28 31 33 29 27 28 31 37 38 42 42 42 44 41 42 40 40 44 46 43 40 43 45 42 39 37 37 36 38 40 37 35 35 34 35 34 34 33 32 31 31
27 29 29 27 27 25 27 24 28 27 29 30 30 30 30 30 28 28 29 39 35 40 40 40 42 43 39 42 41 41 43 47 47 42 44 45 45 43 38 36 34 32 38 40 37 35 34 35 34 33 32 34 37 32
25 26 30 31 30 30 29 28 29 29 27 25 29 29 29 25 25 29 34 37 41 41 45 45 46 46 45 42 42 44 47 48 46 45 46 47 47 46 44 40 37 39 39 40 39 38 36 34 33 33 32 31 32 32
27 30 29 30 30 30 28 29 29 28 28 29 30 25 26 28 30 35 35 36 36 43 45 45 47 48 47 46 47 46 44 42 43 42 41 39 37 39 39 41 41 42 41 41 39 38 37 35 34 33 32 31 30 31
28 29 31 25 27 28 27 29 29 31 33 32 30 28 30 32 30 29 31 31 33 41 39 40 39 44 44 44 45 45 43 43 40 36 37 35 35 33 38 40 41 40 40 39 42 39 37 36 35 34 32 32 31 31
26 30 28 28 24 25 29 30 29 31 31 32 32 30 29 28 28 29 30 32 33 38 40 42 41 42 39 39 37 38 43 46 46 46 40 38 39 37 39 40 39 40 40 39 37 38 42 38 38 33 31 30 29 29
31 29 27 28 22 26 29 30 31 32 32 30 31 30 30 30 32 33 33 32 33 36 40 39 40 42 41 40 39 38 38 39 43 43 44 42 39 41 41 41 41 41 40 39 38 37 35 33 32 30 29 28 29 29
30 29 27 23 25 25 29 30 30 30 31 29 27 29 28 30 30 32 33 32 35 37 41 41 39 39 43 44 45 44 46 42 43 42 40 42 41 41 41 41 41 41 40 38 36 34 33 32 30 30 29 29 28 28
28 28 28 26 27 28 28 29 26 25 27 27 28 29 30 31 30 31 31 31 34 37 40 42 43 43 43 43 44 43 43 43 42 44 44 43 42 41 41 41 41 40 37 36 34 33 31 30 30 29 29 28 28 28

GFSWCAN_sfc_temp_084.txt.gz
Temp
61 61 61 61 61 60 60 60 60 60 59 59 59 58 58 57 56 54 50 49 48 41 42 46 47 40 40 39 36 39 39 40 37 34 32 32 30 36 34 37 36 36 29 28 29 28 31 45 43 40 45 41 43 40
61 61 61 60 60 60 60 60 60 60 59 59 58 58 58 58 57 54 48 51 52 47 43 47 50 50 50 48 42 40 38 38 40 34 33 30 33 31 34 33 36 34 40 35 35 37 46 45 45 44 45 46 42 43
60 60 60 60 60 60 60 60 60 59 59 58 58 58 58 58 57 53 46 46 46 41 42 41 44 49 49 50 51 42 39 44 42 41 36 33 32 35 33 34 34 37 40 38 40 41 43 45 44 44 45 45 45 43
60 60 60 60 60 60 60 60 60 59 59 58 58 58 58 57 56 52 46 45 43 41 37 39 48 43 48 48 49 50 47 45 43 41 37 34 30 39 35 37 37 41 39 39 38 43 43 45 44 45 46 45 43 42
60 60 60 59 59 59 59 59 59 59 58 58 58 57 57 57 55 48 44 44 45 41 34 37 43 47 47 47 47 46 45 41 37 35 33 31 36 36 33 33 33 40 44 40 42 46 45 46 45 44 44 44 42 42
59 59 59 59 59 59 59 59 59 58 57 57 57 57 57 56 52 47 42 44 46 45 38 31 42 40 42 43 42 41 43 39 38 36 34 37 39 40 27 27 42 44 44 47 47 42 44 44 44 42 44 43 42 43
58 59 59 59 59 58 58 58 57 57 56 56 56 56 56 53 48 43 41 43 49 45 38 32 33 41 41 40 38 38 39 38 37 35 33 36 37 38 24 32 46 48 50 48 44 44 41 42 44 43 44 43 45 41
57 58 59 58 58 58 57 57 56 55 56 56 56 56 54 53 51 44 47 49 48 42 40 33 36 35 38 35 34 36 34 34 35 36 33 33 34 33 29 41 46 49 52 47 44 44 43 40 41 40 41 41 40 39
52 58 58 58 57 57 56 56 55 55 55 55 55 54 50 46 43 44 51 50 46 40 32 34 28 26 37 35 34 35 34 28 34 31 32 35 32 29 40 44 47 49 48 44 40 41 39 40 39 38 39 39 39 38
52 57 57 57 56 56 56 55 55 54 54 54 50 43 38 42 51 50 44 41 41 40 39 35 36 29 35 31 31 33 34 32 30 32 33 30 36 44 46 47 48 48 47 41 40 37 36 35 37 37 38 40 41 39
52 54 56 56 55 55 55 55 54 53 52 45 40 38 42 51 42 39 35 34 35 33 37 37 35 31 36 32 31 38 35 35 30 31 30 28 27 42 51 52 55 54 46 45 46 43 44 43 40 38 38 39 39 39
52 52 56 55 54 54 54 54 53 50 46 44 44 46 44 40 35 32 31 33 32 28 33 34 37 36 35 37 35 36 35 33 28 29 23 26 34 43 45 50 54 56 51 44 44 45 42 41 41 41 39 38 38 37
51 51 55 54 54 54 54 53 52 50 51 45 41 37 35 34 27 26 24 28 29 33 32 35 34 36 38 38 37 34 31 30 30 21 27 31 40 42 43 42 43 40 42 44 41 41 41 39 41 41 38 37 37 37
49 49 54 54 53 53 52 52 50 52 46 35 32 27 27 26 28 27 28 32 36 32 33 36 32 37 38 36 35 31 32 27 20 20 28 35 41 43 42 42 40 37 39 40 40 40 40 41 39 40 40 39 38 36
49 48 53 52 53 52 52 50 52 50 40 32 32 24 27 30 29 31 32 34 33 36 36 33 32 35 34 33 33 31 23 19 25 29 35 41 43 40 41 39 37 37 38 38 40 40 39 39 39 36 37 37 37 35
51 48 51 52 52 52 50 51 49 42 37 33 30 26 28 29 26 28 31 33 33 36 36 37 35 33 33 33 30 30 22 24 31 35 41 41 41 42 38 36 36 37 38 39 39 39 39 39 38 36 35 36 35 35
47 47 52 52 51 50 50 45 40 34 33 30 30 31 31 32 34 34 35 36 36 39 29 35 31 30 33 30 28 26 27 34 39 41 42 40 40 38 35 36 37 37 36 38 38 39 37 37 38 37 34 32 33 33
45 51 52 51 49 48 43 39 33 32 30 32 28 29 30 33 34 34 36 35 36 34 34 31 32 31 24 22 24 30 33 36 39 41 40 39 40 39 40 36 37 36 35 36 38 37 37 37 36 34 34 33 32 32
50 51 51 50 47 36 32 33 36 29 32 32 32 34 33 34 36 38 37 39 36 36 35 29 27 30 29 31 33 34 38 40 39 41 40 40 39 38 38 39 39 36 36 36 37 39 37 37 36 35 34 34 32 30
52 51 50 48 46 36 31 30 37 31 30 32 33 32 33 35 37 36 33 33 35 34 27 24 28 33 32 36 37 39 40 41 41 41 42 39 38 36 36 37 37 35 36 35 36 38 34 33 34 35 34 33 32 30
49 48 47 47 37 35 33 32 32 32 31 28 31 34 31 36 34 32 31 33 32 27 28 32 33 37 39 39 40 41 42 43 42 42 42 40 36 36 35 35 36 38 38 36 35 35 37 35 33 34 36 32 31 31
45 47 42 40 33 32 32 34 33 34 32 31 33 33 30 31 31 31 31 29 28 33 33 34 36 38 39 39 41 42 44 44 43 43 43 42 36 34 34 36 36 35 36 37 37 35 32 33 34 33 32 31 32 30
45 42 33 32 31 31 29 34 31 28 29 29 31 28 28 30 32 35 29 30 31 35 38 37 40 41 43 43 41 43 43 43 42 42 42 41 40 39 37 37 39 36 34 33 36 35 34 37 37 32 33 31 32 32
43 33 32 31 30 27 32 30 32 32 32 30 25 25 28 28 30 28 27 28 32 34 35 36 41 41 34 36 37 42 44 43 42 40 40 39 36 36 38 39 39 39 40 37 36 34 35 33 36 33 32 32 32 31
33 30 31 27 30 29 28 27 29 28 28 29 25 22 28 28 26 26 27 30 31 34 37 39 41 41 41 43 43 44 44 44 41 40 40 41 36 34 34 34 34 37 39 36 34 34 33 34 32 32 31 32 31 30
26 28 22 25 27 26 27 24 26 27 29 27 28 29 29 27 26 22 27 33 33 36 39 38 38 38 39 43 43 43 43 45 44 42 40 42 41 38 35 33 32 31 39 41 37 35 33 33 32 31 31 34 36 32
19 24 29 29 29 29 27 28 29 29 27 25 29 29 29 25 24 28 32 33 35 41 42 42 43 42 41 41 43 47 44 46 45 46 43 43 42 43 40 37 36 38 39 39 40 37 34 33 32 32 32 33 33 32
26 31 26 27 28 29 27 28 28 28 28 29 30 26 23 25 28 33 33 35 40 37 39 41 43 44 44 45 45 42 41 41 40 40 39 35 35 37 38 38 40 41 41 41 40 39 37 35 33 33 33 32 31 31
29 30 29 26 26 27 26 29 29 30 32 32 30 27 28 31 32 32 30 28 32 34 34 34 36 39 39 39 41 44 40 41 38 34 34 32 31 32 38 39 40 41 41 40 42 40 37 36 35 34 34 33 32 31
28 29 27 27 23 25 29 30 30 29 29 31 31 29 30 28 25 23 27 28 30 32 35 36 35 38 38 38 35 36 42 45 47 44 40 37 39 38 39 40 41 40 40 39 38 38 42 38 37 33 32 31 31 29
28 28 26 26 21 24 26 27 28 29 29 28 28 30 31 30 29 28 28 28 28 31 34 35 34 36 38 39 39 37 36 42 44 44 43 45 40 40 40 41 41 40 40 39 38 37 35 33 32 31 30 30 30 31
28 28 27 22 24 25 27 28 26 27 27 27 24 27 27 28 29 31 29 30 30 31 36 37 36 36 41 43 44 44 44 42 42 43 42 41 41 41 41 41 40 40 39 38 37 35 34 33 32 31 30 30 30 30
25 27 29 29 27 26 28 26 25 24 23 23 24 26 27 29 30 33 29 33 35 38 37 38 41 42 42 42 42 43 44 44 44 43 44 44 43 42 42 41 41 40 38 37 36 35 33 33 31 30 30 29 29 29